COSMOS 1275 DEB

Satellite information

Favourite Embed

Satellite Type and Status

DEBRISIN ORBIT

Key statistics

Satellite COSMOS 1275 DEB at a glance.

Uptime

16270

Days in orbit

Revolutions

≈ 13.9

Per day

Orbit

LEO

Low Earth Orbit

Inclination

83.2

Latest

Satellite identification and parameters

Extended collection of information and parameters for COSMOS 1275 DEB.

Object identification

Identified? True

Debris? True

Object name: COSMOS 1275 DEB

International designator: 1981-053DX

Object number (NORAD): 12781

Object ID (CCSDS): 12781

Country: COMMONWEALTH OF INDEPENDENT STATES (CIS)

Current information (Y/N): Y

RCS size: SMALL

Orbital parameters

Period: 103.966 minutes

Inclination: 83.1698 deg

SMA: 7324.081 km

Apoapsis: 998.279 km

Periapsis: 893.613 km

RAAN: 71.8982 deg

Eccentricy: 0.00714532

Argument of periapsis: 166.0491 deg

Mean anomaly: 346.427 deg

Mean motion: 13.85074161 rev/day

Mean motion (dot): 0.0000121 rev/day2

B* drag term: 0.0010340517 1/REarth

Two-line elements (TLE)

Creation date: Dec. 20, 2025, 3:40 a.m.

Reference frame: TEME

Reference center: EARTH

Epoch: Dec. 19, 2025, 4:29 p.m. UTC

TLE line 0: 0 COSMOS 1275 DEB

TLE line 1: 1 12781U 81053DX 25353.68743907 .00001210 00000-0 10341-2 0 9993

TLE line 2: 2 12781 83.1698 71.8982 0071453 166.0491 346.4270 13.85074161224086

Live tracking on map

Real-time ground track for satellite COSMOS 1275 DEB.

In-orbit conjunctions

A list of the most updated potential collisions computed for object COSMOS 1275 DEB.

Target Orbit TCA Probability of collision Miss distance Type
COSMOS 627 LEO 2024-12-10 12:01:58 0.0002147422 69.0 (m) PAYLOAD

Associated space launch

Navigation satellite providing location information for the Tsiklon-B navigation system

COSMOS 1275 DEB was lifted into orbit during the mission ‘Kosmos-3M | Parus 27’, on board a Kosmos-3M space rocket.

The launch took place on June 4, 1981, 3:41 p.m. from 132/2.

For more information about the launch, click the button.

Launch to space Kosmos-3M | Parus 27
Kosmos-3M | Parus 27

Agency: N/A

Status: Launch Successful

Launch date: June 4, 1981, 3:41 p.m. UTC

Rocket: Kosmos-3M

Launch pad: 132/2

Location: Plesetsk Cosmodrome, Russian Federation

...

Latest news about this satellite

There are no fresh news available about this satellite. Check back as we update our databases every day.


Newsletter sign-up

Weekly statistics, charts and insights to help you stay on top of the space industry.